Volver al catálogo

SL-16 DEB

ActivoLEO
NORAD 22387·DEBRIS·🇷🇺 Russia

Lanzado Dec 25, 1992 desde Baikonur Cosmodrome

Loading…

Próximos Pases (próximas 24 horas)

TLE

ActualizadoSource: Space-Track

Época: Sep 14, 2026, 06:18 UTC

1 22387U 92093CC  26257.26295461  .00000135  00000-0  10287-3 0  9992
2 22387  70.8871 107.0909 0105967  31.2768  89.1848 14.07380397719485

Sigue SL-16 DEB en tiempo real con AllMySat

Download on the App Store